Temp
77 80 82 83 83 83 83 83 83 83 83 82 82 82 83 83 83 83 83 83 83 84 84 84 84 84 84 83 83 83 83 83 83 83 83 83 82 82 83 82 82 81 82
80 81 82 83 83 83 83 83 82 82 82 82 82 83 83 83 83 83 83 83 84 84 84 84 84 84 84 84 83 84 83 83 83 84 84 83 83 83 82 82 83 82 82
79 81 82 82 83 83 83 82 82 82 83 83 82 83 83 83 83 83 83 84 84 84 84 84 84 84 84 84 83 83 83 83 83 83 83 76 78 83 83 82 82 83 82
80 80 81 82 83 83 82 82 82 83 83 83 83 83 83 83 83 84 84 84 84 84 84 84 84 84 84 83 83 83 83 83 83 83 77 78 81 83 83 82 82 82 81
79 79 80 82 83 83 83 82 82 83 83 83 83 83 83 83 83 84 84 84 84 84 84 84 83 82 84 83 83 83 83 82 82 80 75 75 75 82 83 82 82 81 81
79 80 82 83 84 83 83 82 83 83 83 83 83 83 83 83 83 84 84 84 84 84 84 84 83 83 83 83 82 82 82 83 82 76 75 77 75 82 82 82 82 81 81
78 80 82 83 84 83 83 83 83 83 83 83 83 83 83 83 83 83 84 83 84 84 83 83 83 84 82 83 82 82 82 83 77 75 75 75 75 82 82 82 82 81 81
79 79 80 83 83 83 83 83 83 83 83 83 83 83 83 83 83 83 83 83 83 83 83 83 84 84 83 83 82 82 82 83 80 76 75 74 78 81 83 82 81 81 81
80 78 78 79 82 84 83 83 83 83 83 83 83 83 83 83 83 83 83 83 82 83 83 82 82 83 83 82 82 82 83 83 75 75 77 74 79 81 82 81 81 81 80
77 77 77 77 78 78 80 83 83 83 83 84 83 83 83 83 83 83 82 82 83 83 82 82 82 81 82 82 82 82 82 84 75 76 75 74 80 82 82 82 81 81 81
76 77 76 76 76 76 77 80 82 83 84 84 83 84 82 77 78 80 80 82 83 83 83 83 82 82 81 82 82 82 82 74 74 73 74 79 80 82 82 81 81 80 80
73 75 76 76 75 75 79 77 77 77 77 76 77 77 76 75 74 78 80 83 83 83 83 83 82 82 81 75 74 80 74 74 74 73 73 80 80 81 82 81 80 80 80
74 75 75 74 73 75 75 75 74 73 74 74 74 74 74 74 75 75 74 75 74 81 77 79 78 77 75 73 73 72 73 73 72 74 77 80 80 81 82 81 80 80 81
74 75 74 75 73 74 74 72 72 71 72 71 72 73 73 72 72 73 73 73 73 73 73 73 74 74 74 74 74 73 73 72 71 73 75 80 80 81 82 81 80 80 80
73 74 74 75 74 73 73 72 72 72 71 71 71 72 72 71 71 71 71 72 72 72 72 72 72 72 73 73 74 73 72 73 73 72 73 80 80 80 81 82 81 81 81
75 75 74 74 74 72 71 71 71 71 71 71 71 71 71 71 70 70 70 70 71 71 71 71 71 71 71 72 73 73 71 73 73 72 72 73 80 80 81 81 81 81 81
76 75 74 74 73 71 70 69 68 68 70 70 71 71 71 70 70 70 69 70 70 70 71 71 71 71 70 71 71 73 72 73 73 73 72 72 75 80 80 80 80 80 81
74 75 75 78 73 71 69 68 68 67 67 70 70 70 71 70 69 69 68 69 70 70 70 69 69 69 69 69 70 71 72 72 73 73 73 73 73 75 78 80 80 80 80
75 74 74 73 72 71 70 69 68 68 69 70 70 69 69 71 71 70 69 69 70 69 69 69 68 69 68 69 69 70 70 70 71 73 72 73 73 73 73 78 80 79 80
76 75 75 73 72 72 71 70 70 69 70 69 70 70 70 70 71 70 70 70 69 68 68 68 68 68 68 68 70 70 70 70 71 71 72 74 73 73 73 72 74 76 79
73 72 71 72 72 71 69 68 67 67 67 68 68 70 69 70 71 70 69 68 68 68 68 68 67 66 67 68 65 66 67 69 70 70 71 73 72 73 72 73 73 74 76
69 71 68 66 67 70 69 68 68 67 67 67 67 68 70 70 70 70 68 68 68 68 67 68 67 66 66 67 64 63 62 65 67 69 70 71 71 72 72 73 72 73 73
68 67 64 65 67 70 70 68 67 67 66 65 65 66 68 69 69 69 69 68 68 68 67 67 68 66 65 66 67 64 60 60 63 67 69 70 70 70 71 72 72 72 72
68 67 66 66 65 70 70 68 67 65 64 64 64 65 66 68 68 69 68 68 67 67 67 68 68 67 65 64 66 66 66 64 61 61 65 68 69 70 70 70 71 72 72
70 70 69 68 67 70 70 68 66 65 64 65 64 64 65 66 67 68 68 67 67 67 67 67 67 66 66 65 66 64 64 65 64 62 60 63 66 68 70 70 70 70 71
68 68 70 70 69 69 68 67 66 64 63 63 63 63 64 64 65 66 68 67 67 67 67 67 67 67 66 66 65 64 65 64 63 62 61 62 62 67 70 69 70 70 70
MSLP
1011.21 1011.29 1011.61 1011.77 1012.22 1012.47 1012.71 1012.97 1013.30 1013.54 1013.68 1013.80 1013.93 1014.26 1014.45 1014.63 1014.75 1014.94 1015.18 1015.43 1015.59 1015.80 1015.98 1015.93 1015.89 1016.01 1016.08 1016.12 1016.25 1016.43 1016.54 1016.91 1017.21 1017.28 1017.54 1017.68 1017.97 1018.21 1018.34 1018.63 1018.86 1018.96 1019.07
1010.60 1010.94 1011.44 1011.98 1012.42 1012.70 1012.79 1013.00 1013.18 1013.50 1013.75 1014.01 1014.30 1014.37 1014.69 1014.82 1014.96 1015.19 1015.24 1015.62 1015.78 1015.92 1016.06 1016.15 1016.06 1016.07 1016.18 1016.31 1016.55 1016.69 1016.88 1017.09 1017.32 1017.48 1017.61 1017.92 1018.15 1018.36 1018.56 1018.84 1018.96 1019.20 1019.37
1010.63 1011.00 1011.34 1011.65 1012.18 1012.62 1012.88 1013.06 1013.29 1013.51 1013.79 1014.03 1014.29 1014.46 1014.72 1014.91 1015.03 1015.25 1015.41 1015.67 1015.84 1016.01 1016.11 1016.25 1016.30 1016.27 1016.26 1016.39 1016.76 1016.95 1017.13 1017.30 1017.46 1017.62 1017.97 1018.41 1018.47 1018.51 1018.73 1019.02 1019.23 1019.43 1019.67
1010.49 1010.92 1011.38 1011.69 1011.94 1012.30 1012.75 1013.15 1013.34 1013.59 1013.77 1014.17 1014.39 1014.66 1014.87 1015.02 1015.12 1015.22 1015.44 1015.69 1015.81 1016.10 1016.20 1016.31 1016.49 1016.53 1016.49 1016.57 1016.79 1017.11 1017.33 1017.53 1017.76 1017.94 1018.30 1018.55 1018.53 1018.67 1018.82 1019.17 1019.39 1019.65 1019.95
1011.01 1011.14 1011.46 1011.86 1012.24 1012.58 1012.90 1013.23 1013.50 1013.65 1013.92 1014.19 1014.42 1014.67 1015.08 1015.25 1015.27 1015.30 1015.49 1015.76 1015.84 1016.08 1016.29 1016.40 1016.50 1016.70 1016.71 1016.85 1016.88 1017.35 1017.62 1017.84 1018.01 1018.29 1018.63 1018.71 1018.83 1018.86 1018.99 1019.30 1019.62 1019.83 1020.11
1011.31 1011.45 1011.71 1012.03 1012.29 1012.72 1012.98 1013.18 1013.49 1013.78 1014.03 1014.27 1014.54 1014.73 1015.04 1015.38 1015.58 1015.57 1015.71 1015.82 1015.91 1016.05 1016.19 1016.50 1016.54 1016.84 1017.01 1016.97 1017.12 1017.41 1017.69 1017.94 1018.20 1018.58 1018.75 1018.87 1018.96 1018.95 1019.12 1019.31 1019.67 1019.98 1020.25
1011.45 1011.53 1011.78 1012.08 1012.32 1012.64 1012.93 1013.37 1013.63 1013.98 1014.27 1014.44 1014.75 1014.92 1015.05 1015.30 1015.58 1015.82 1015.89 1015.97 1016.01 1016.08 1016.18 1016.48 1016.61 1016.73 1017.02 1017.14 1017.29 1017.40 1017.74 1017.98 1018.44 1018.70 1018.85 1019.03 1019.13 1019.13 1019.26 1019.46 1019.71 1020.09 1020.32
1011.31 1011.49 1011.84 1012.23 1012.47 1012.66 1013.00 1013.31 1013.71 1014.08 1014.34 1014.61 1014.84 1015.08 1015.26 1015.33 1015.54 1015.81 1015.98 1016.13 1016.17 1016.15 1016.22 1016.30 1016.61 1016.74 1016.91 1017.29 1017.42 1017.48 1017.71 1017.96 1018.31 1018.60 1018.87 1019.11 1019.26 1019.30 1019.45 1019.66 1019.89 1020.15 1020.42
1011.42 1011.63 1011.91 1012.31 1012.53 1012.65 1012.95 1013.29 1013.67 1013.98 1014.26 1014.56 1014.85 1015.11 1015.39 1015.48 1015.64 1015.85 1015.99 1016.13 1016.22 1016.24 1016.25 1016.45 1016.51 1016.72 1016.93 1017.21 1017.50 1017.56 1017.78 1017.90 1018.35 1018.60 1018.98 1019.17 1019.31 1019.40 1019.56 1019.81 1020.01 1020.27 1020.53
1011.95 1012.14 1012.25 1012.53 1012.79 1012.75 1013.23 1013.30 1013.52 1013.86 1014.16 1014.43 1014.77 1015.06 1015.31 1015.54 1015.67 1015.79 1015.88 1016.00 1016.22 1016.21 1016.29 1016.36 1016.58 1016.82 1016.91 1017.10 1017.38 1017.65 1017.94 1018.00 1018.29 1018.46 1018.83 1019.10 1019.21 1019.45 1019.59 1019.81 1020.08 1020.36 1020.61
1012.14 1012.52 1012.80 1013.01 1012.98 1013.10 1013.40 1013.62 1013.74 1013.85 1014.16 1014.37 1014.64 1014.90 1015.20 1015.59 1015.78 1015.80 1015.89 1015.85 1016.05 1016.21 1016.20 1016.22 1016.50 1016.70 1016.94 1017.17 1017.40 1017.60 1017.87 1018.32 1018.32 1018.42 1018.64 1018.91 1019.05 1019.28 1019.56 1019.79 1019.99 1020.25 1020.58
1012.65 1012.75 1012.87 1013.01 1013.15 1013.20 1013.29 1013.58 1013.78 1013.96 1014.17 1014.40 1014.61 1014.78 1015.10 1015.51 1015.82 1015.88 1015.88 1015.84 1015.86 1016.09 1016.13 1016.16 1016.38 1016.60 1016.83 1017.20 1017.58 1017.59 1017.93 1018.22 1018.32 1018.28 1018.49 1018.69 1019.07 1019.29 1019.44 1019.76 1019.95 1020.17 1020.43
1011.88 1012.24 1012.59 1013.04 1013.09 1013.40 1013.46 1013.64 1013.76 1013.93 1014.17 1014.29 1014.51 1014.79 1015.11 1015.41 1015.59 1015.80 1015.99 1015.97 1015.98 1015.92 1016.09 1016.13 1016.34 1016.56 1016.81 1017.16 1017.46 1017.76 1017.85 1018.02 1018.18 1018.13 1018.14 1018.23 1018.80 1019.15 1019.33 1019.67 1019.92 1020.14 1020.32
1012.18 1012.25 1012.53 1012.84 1013.17 1013.27 1013.53 1013.59 1013.60 1013.90 1014.06 1014.23 1014.48 1014.79 1015.05 1015.33 1015.53 1015.72 1015.78 1015.74 1015.99 1016.11 1016.24 1016.36 1016.44 1016.55 1016.88 1017.13 1017.26 1017.46 1017.74 1017.91 1018.06 1018.13 1018.02 1018.04 1018.54 1018.93 1019.08 1019.42 1019.70 1020.02 1020.29
1011.81 1012.07 1012.34 1012.51 1012.88 1013.16 1013.59 1013.68 1013.90 1013.92 1013.96 1014.18 1014.45 1014.64 1014.84 1015.13 1015.51 1015.51 1015.60 1015.67 1015.86 1016.12 1016.20 1016.30 1016.40 1016.51 1016.71 1016.98 1017.14 1017.31 1017.56 1017.74 1017.81 1017.96 1017.93 1017.85 1018.25 1018.74 1018.98 1019.29 1019.57 1019.80 1020.08
1011.40 1011.75 1012.17 1012.57 1012.80 1013.12 1013.71 1013.93 1013.89 1013.77 1013.82 1014.03 1014.16 1014.37 1014.70 1014.89 1015.26 1015.53 1015.61 1015.68 1015.81 1015.90 1016.05 1016.19 1016.22 1016.32 1016.68 1016.76 1016.92 1016.81 1017.24 1017.36 1017.39 1017.71 1017.84 1017.97 1018.15 1018.30 1018.68 1018.97 1019.31 1019.59 1019.81
1011.05 1011.42 1011.88 1012.30 1012.70 1013.31 1013.73 1014.00 1014.14 1014.16 1014.24 1014.25 1014.07 1014.19 1014.38 1014.60 1014.83 1015.22 1015.59 1015.76 1015.65 1015.79 1016.00 1016.21 1016.17 1016.18 1016.49 1016.57 1016.89 1016.65 1016.70 1016.97 1017.03 1017.39 1017.65 1017.95 1018.00 1018.18 1018.53 1018.77 1019.00 1019.34 1019.58
1011.23 1011.36 1011.53 1011.96 1012.43 1012.89 1013.44 1014.06 1014.29 1014.42 1014.40 1014.27 1014.28 1014.07 1014.03 1014.23 1014.49 1014.82 1015.31 1015.48 1015.44 1015.63 1015.88 1016.20 1016.37 1016.32 1016.44 1016.67 1016.72 1016.59 1016.74 1016.60 1016.65 1016.96 1017.38 1017.67 1017.71 1018.05 1018.25 1018.48 1018.79 1019.00 1019.31
1010.58 1011.63 1011.81 1012.00 1012.35 1012.97 1013.23 1013.58 1014.12 1014.35 1014.26 1013.98 1013.94 1013.99 1013.91 1013.92 1014.07 1014.36 1014.82 1015.06 1015.16 1015.40 1015.76 1016.08 1016.34 1016.38 1016.48 1016.50 1016.56 1016.63 1016.58 1016.50 1016.57 1016.67 1017.17 1017.49 1017.70 1017.77 1018.03 1018.08 1018.27 1018.59 1018.99
1010.80 1011.47 1011.87 1012.31 1012.55 1012.42 1013.09 1013.52 1013.77 1014.20 1014.06 1013.91 1013.59 1013.51 1013.46 1013.60 1013.65 1013.89 1014.28 1014.65 1014.91 1015.30 1015.51 1015.88 1016.19 1016.33 1016.23 1016.28 1016.50 1016.52 1016.71 1016.46 1016.58 1016.73 1016.87 1016.97 1017.41 1017.40 1017.70 1017.83 1018.06 1018.20 1018.48
1011.84 1012.15 1013.23 1012.73 1012.15 1012.69 1013.33 1013.86 1013.98 1014.20 1013.93 1013.78 1013.27 1013.17 1013.19 1013.25 1013.34 1013.56 1013.90 1014.37 1014.51 1014.91 1015.11 1015.61 1016.06 1016.29 1016.22 1016.32 1016.69 1016.84 1016.81 1016.58 1016.68 1016.77 1016.66 1016.86 1017.07 1017.09 1017.36 1017.53 1017.71 1017.92 1018.03
1013.18 1013.62 1013.72 1014.57 1013.93 1013.27 1012.72 1013.35 1013.42 1013.71 1013.50 1013.46 1013.13 1012.90 1012.76 1012.74 1012.98 1013.04 1013.39 1013.81 1014.21 1014.59 1014.98 1015.32 1015.74 1016.12 1016.15 1016.16 1016.72 1017.11 1017.32 1017.16 1016.84 1016.61 1016.63 1016.70 1016.78 1016.77 1016.98 1017.06 1017.24 1017.39 1017.52
1013.87 1013.91 1014.41 1013.90 1013.27 1013.83 1012.63 1013.03 1013.25 1013.54 1013.54 1013.66 1013.40 1012.94 1012.66 1012.53 1012.61 1012.73 1012.80 1013.25 1013.76 1014.09 1014.54 1014.92 1015.29 1015.78 1015.97 1016.09 1016.18 1016.64 1017.10 1017.20 1017.10 1016.76 1016.62 1016.71 1016.78 1016.80 1016.54 1016.60 1016.73 1016.88 1017.03
1013.61 1012.71 1011.90 1012.76 1013.85 1013.46 1012.84 1013.12 1013.49 1013.86 1013.93 1013.66 1013.49 1013.01 1012.71 1012.38 1012.22 1012.29 1012.45 1012.80 1013.32 1013.70 1014.02 1014.34 1014.78 1015.35 1015.69 1015.97 1016.33 1016.42 1016.36 1016.46 1016.85 1017.10 1016.73 1016.65 1016.54 1016.51 1016.32 1016.29 1016.35 1016.45 1016.59
1013.38 1013.12 1012.35 1013.10 1013.96 1013.47 1012.66 1013.17 1013.94 1013.82 1013.97 1013.91 1013.60 1013.25 1012.76 1012.33 1012.07 1012.00 1012.24 1012.68 1013.05 1013.41 1013.65 1014.06 1014.58 1015.00 1015.27 1015.40 1015.67 1016.08 1016.42 1016.45 1016.54 1016.77 1017.12 1016.93 1016.73 1016.46 1016.06 1015.89 1015.88 1016.04 1016.15
1012.89 1012.41 1012.42 1012.90 1013.22 1013.29 1013.52 1013.82 1014.09 1014.08 1014.45 1014.20 1013.58 1013.05 1012.64 1012.20 1011.86 1011.87 1012.02 1012.41 1012.69 1013.00 1013.31 1013.72 1014.16 1014.58 1014.81 1015.05 1015.20 1015.46 1015.69 1016.13 1016.43 1016.63 1016.86 1016.88 1016.73 1016.25 1016.07 1015.47 1015.37 1015.49 1015.69
Wind_Speed
9 9 15 17 17 18 19 18 17 17 16 15 16 16 15 16 16 17 16 15 14 12 11 9 10 9 8 11 14 14 17 17 17 18 16 17 16 16 15 17 16 11 15
13 11 16 16 17 17 17 18 18 18 18 17 16 16 16 15 15 15 15 13 13 12 11 9 8 9 10 11 13 15 17 16 16 17 17 16 16 15 15 16 15 12 15
14 11 12 16 17 17 16 17 18 18 18 18 17 17 17 16 16 15 14 13 12 11 11 9 8 10 12 13 13 15 17 15 15 16 17 5 6 15 15 15 16 14 15
15 12 11 16 17 18 17 16 17 17 18 17 16 15 16 15 15 15 14 13 12 10 10 10 8 10 12 13 14 14 16 15 15 15 5 6 8 14 15 15 15 14 15
12 11 12 16 16 16 16 16 16 16 16 17 16 15 14 14 14 14 13 12 12 10 9 9 8 8 11 12 15 14 14 14 14 11 5 5 5 11 14 15 14 14 14
10 10 14 16 16 16 16 16 16 15 15 15 15 15 14 13 11 12 12 10 10 11 9 8 8 8 9 11 15 14 13 13 13 6 5 6 5 13 14 15 14 12 13
9 9 12 16 15 15 15 15 15 14 13 14 14 14 14 12 11 10 9 8 7 8 9 8 7 8 7 9 12 14 12 13 5 4 4 5 5 12 14 14 14 12 13
13 9 9 13 13 14 15 15 15 14 14 14 13 13 12 12 11 10 8 7 6 6 7 8 8 8 9 8 9 11 11 11 5 3 5 5 8 12 13 14 14 12 12
10 10 7 7 12 16 16 15 16 16 15 14 13 12 12 12 11 10 9 7 6 6 6 6 8 10 8 10 9 9 10 10 5 4 5 4 11 12 14 14 13 12 12
8 7 7 6 5 6 8 16 16 16 16 16 15 14 13 12 11 10 9 7 6 6 6 7 8 8 8 7 9 9 8 9 5 4 4 4 13 13 15 15 14 12 11
4 7 5 5 4 5 5 8 13 16 16 16 14 14 10 4 5 7 7 9 8 8 8 7 7 7 8 7 8 10 9 2 4 2 3 9 14 15 15 15 13 14 13
5 7 7 6 5 5 5 4 5 6 4 5 5 6 5 5 4 4 7 9 10 9 8 8 8 7 7 3 2 8 3 4 3 3 3 13 14 15 16 15 15 15 15
10 7 7 5 5 5 3 3 2 3 3 3 6 5 5 4 4 4 3 2 2 6 2 4 4 3 4 3 3 2 3 4 3 3 6 14 15 16 17 16 16 16 15
9 10 7 6 6 5 4 3 4 3 3 3 4 5 4 3 4 3 3 4 3 2 4 3 3 4 4 4 5 5 4 4 3 2 6 14 15 17 16 18 17 17 16
9 9 10 9 8 6 6 3 3 4 3 4 4 5 4 4 4 4 4 3 3 3 3 4 4 4 4 4 5 5 6 5 5 3 3 18 16 15 17 18 18 17 17
9 9 8 9 7 6 5 5 5 4 4 4 4 5 6 4 3 3 3 4 3 3 3 4 4 4 4 3 5 5 5 6 7 5 3 4 12 14 15 17 18 18 18
9 10 11 10 7 6 6 5 3 3 3 3 4 5 6 6 6 6 4 4 4 3 4 3 3 2 2 3 5 4 4 6 7 8 6 4 5 14 15 17 17 17 17
6 10 10 9 9 7 6 4 3 4 4 4 4 4 7 7 7 5 4 5 4 4 3 3 3 3 3 3 3 4 4 4 6 8 6 4 5 5 9 15 17 17 17
9 7 8 7 7 6 6 4 5 6 4 4 4 4 6 6 7 6 5 5 5 4 4 3 3 2 3 3 3 4 4 4 5 5 5 6 8 6 4 13 19 17 19
3 6 7 6 6 7 3 3 2 3 4 4 6 6 7 6 8 7 5 5 5 3 4 3 4 3 2 3 3 3 4 4 3 4 5 5 8 8 6 6 7 10 19
19 5 8 1 6 4 2 2 2 4 3 4 5 6 6 7 8 9 6 5 5 6 7 5 3 5 4 3 2 1 2 2 4 4 3 6 6 8 7 7 6 6 7
8 6 14 19 14 5 3 2 2 2 3 2 3 5 5 5 6 7 8 7 7 4 5 5 5 2 2 4 3 1 1 3 2 3 3 4 7 5 6 7 8 8 7
8 11 10 21 11 11 4 2 2 1 1 3 3 3 4 5 6 6 7 7 7 6 6 6 6 6 4 3 4 4 2 4 1 1 4 4 5 4 5 6 7 7 7
10 9 12 10 8 10 4 2 1 1 3 3 2 3 5 5 5 5 5 6 6 5 6 7 6 4 3 4 1 3 0 3 3 0 2 3 4 6 7 4 5 6 6
7 7 13 11 10 9 4 3 1 1 3 4 4 6 6 5 5 5 6 6 6 5 5 6 6 5 4 3 3 3 2 1 2 2 2 2 2 4 5 6 5 5 5
4 6 8 7 4 2 4 3 2 1 5 4 4 3 4 4 3 4 5 5 5 5 6 6 6 7 6 4 3 4 4 4 3 3 2 3 3 4 4 5 5 5 4
Wind_Direction
165 158 148 140 140 137 133 132 130 129 127 120 119 122 122 126 128 129 131 135 137 138 138 136 134 135 132 130 133 132 126 128 127 126 128 124 125 121 118 116 116 121 114
143 154 152 144 145 143 141 140 138 139 137 134 132 130 136 135 134 136 135 141 142 143 137 135 132 139 136 134 133 132 127 131 134 134 130 129 128 124 122 123 123 119 125
145 154 152 151 153 151 148 147 144 144 143 144 142 143 142 143 143 138 138 141 143 146 141 131 126 139 137 139 137 136 134 137 138 139 129 124 127 130 131 128 131 126 121
150 154 157 162 159 156 157 155 151 149 147 148 146 145 145 142 139 138 138 140 140 142 141 130 128 134 134 138 138 141 138 139 139 133 112 136 133 138 138 133 132 135 128
153 156 161 167 165 164 162 160 159 157 152 150 147 145 149 148 143 140 141 147 147 148 149 140 133 134 132 141 139 144 141 143 139 124 116 110 126 144 139 137 140 134 134
152 159 168 170 171 175 171 167 166 162 157 151 149 149 152 153 148 143 148 154 155 155 157 153 143 137 139 142 144 144 142 143 131 126 115 137 136 145 146 142 140 141 141
155 162 168 174 176 181 175 173 168 165 160 156 155 155 155 156 154 154 152 153 161 168 164 167 162 147 150 148 148 147 151 151 132 144 148 139 156 151 151 147 140 149 149
156 159 164 173 175 175 175 172 168 168 166 163 160 159 161 162 160 161 161 159 168 167 177 184 172 163 159 161 155 154 151 153 139 159 150 149 172 156 158 149 148 155 154
162 155 157 162 175 173 174 173 173 172 170 167 166 166 170 168 168 170 166 166 168 169 180 194 188 171 180 171 163 165 159 149 114 122 147 160 170 169 159 156 156 159 156
158 157 159 162 174 167 172 175 176 174 172 171 171 173 175 176 174 177 167 169 176 182 181 196 206 189 183 174 170 169 171 160 129 114 161 175 167 175 166 163 163 164 169
145 155 167 172 168 151 151 180 176 174 175 174 176 178 176 156 184 186 182 183 184 188 187 193 207 203 196 201 188 174 172 141 126 132 155 185 175 180 176 172 171 172 175
169 175 180 181 180 163 166 164 158 174 165 165 167 174 150 159 180 190 196 203 193 197 195 203 202 205 214 176 205 188 135 163 162 173 176 186 187 187 181 178 175 180 180
189 174 178 179 172 158 162 164 154 144 155 157 161 159 161 164 189 191 193 224 237 204 190 200 208 199 210 163 181 163 172 173 185 185 175 187 189 192 187 184 183 187 189
181 181 170 175 164 162 175 190 160 176 178 179 168 162 162 174 191 218 199 183 183 198 184 188 199 196 206 190 201 170 185 175 189 177 186 188 195 193 192 190 190 192 197
180 183 186 171 177 179 174 168 165 185 178 173 187 181 170 186 184 187 199 179 185 188 184 200 205 190 205 202 217 183 179 189 176 178 199 205 202 199 195 195 196 199 203
182 186 176 182 180 170 178 187 194 190 184 191 191 194 192 178 188 186 200 198 196 198 191 207 196 190 203 197 233 207 188 187 184 181 196 219 215 200 197 199 201 204 206
191 178 179 179 176 173 182 197 198 211 205 214 217 197 191 186 191 187 195 201 212 204 205 213 208 187 184 206 236 232 209 193 174 187 187 193 220 208 206 205 201 207 212
168 187 178 178 177 174 173 189 221 218 216 221 225 208 195 188 184 189 195 204 203 202 194 198 199 208 188 210 227 218 209 179 185 195 179 171 194 207 225 213 211 209 213
172 173 185 161 161 183 185 180 209 227 221 218 204 223 216 208 194 183 193 206 193 190 201 198 211 190 191 216 210 223 209 179 198 182 180 197 211 209 208 228 215 215 214
161 164 198 156 168 182 172 147 165 249 241 230 226 215 219 203 203 194 194 202 183 187 200 190 186 202 199 198 212 226 196 189 216 207 206 201 220 216 203 209 214 223 218
354 311 357 316 187 168 126 168 179 226 231 247 235 232 223 221 214 199 201 210 185 189 198 190 184 202 214 175 125 271 285 226 218 215 189 197 207 208 202 207 209 213 221
202 327 3 325 321 255 135 176 164 230 262 263 276 268 256 235 216 193 192 195 186 180 189 182 172 179 211 179 143 139 162 342 297 222 203 210 210 204 206 208 207 213 215
142 124 133 263 305 276 146 122 30 359 333 317 286 285 266 243 223 203 198 194 190 183 190 190 181 184 182 195 202 163 120 214 163 295 218 207 217 211 218 204 206 216 211
143 169 122 247 277 276 147 107 76 247 276 281 273 291 290 261 232 213 200 183 184 187 186 192 186 185 144 187 145 214 244 149 160 343 325 243 225 218 220 219 215 217 215
145 202 161 190 257 251 99 103 186 314 309 301 300 291 276 268 238 209 195 189 183 181 192 177 178 180 187 168 182 146 188 78 73 126 200 272 310 252 235 209 199 207 196
177 183 203 212 227 189 123 130 147 216 270 287 286 300 301 291 254 204 187 184 187 184 182 183 188 194 190 204 191 161 164 164 189 164 188 219 216 259 252 200 188 195 186